Regional Weather Roundup
Issued by NWS

Home | Current Version | Previous Version | Graphics & Text | Print | Product List | Glossary On
Versions: 1 2 3 4 5 6 7 8 9 10 11 12 13 14 15 16 17 18 19 20 21 22 23 24 25 26 27 28 29 30 31 32 33 34 35 36 37 38 39 40 41 42 43 44 45 46 47 48 49 50
322
ASUS45 KABQ 271101
RWRNM
NEW MEXICO REGIONAL WEATHER ROUNDUP
NATIONAL WEATHER SERVICE ALBUQUERQUE NM
500 AM MDT SAT MAY 27 2017

NOTE: "FAIR" MEANS FEW OR NO CLOUDS BELOW 12,000 FEET AGL WITH NO
       SIGNIFICANT WEATHER OR OBSTRUCTIONS TO VISION.

      THIS PRODUCT IS RELEASED AS TWO VERSIONS.  ONE VERSION NEAR
      THE TOP OF THE HOUR CONTAINING PRELIMINARY DATA FROM ALBUQUERQUE
      AND OTHER STATIONS.  A FINAL VERSION WITH ADDITIONAL DATA IS
      ISSUED ABOUT 10 MINUTES AFTER THE HOUR.

NMZ501-503-504-510>518-271200-
NORTHWEST PLATEAU/NORTHCENTRAL MOUNTAINS

CITY           SKY/WX    TMP DP  RH WIND       PRES   REMARKS
FARMINGTON     FAIR      52  21  29 W5        30.02R
LOS ALAMOS     FAIR      57  10  15 W15G23    30.12F
SANTA FE       FAIR      47  16  29 NE7       30.09R
TAOS           FAIR      45  10  24 CALM      30.13R
ANGEL FIRE     FAIR      41  15  35 CALM      30.16R

$$
NMZ402-403-502-505>509-271200-
WESTCENTRAL MOUNTAINS/SOUTHWEST MOUNTAINS

CITY           SKY/WX    TMP DP  RH WIND       PRES   REMARKS
GALLUP         FAIR      38  16  40 CALM      30.13S
GRANTS         FAIR      41  10  28 CALM      30.15R
SILVER CITY    FAIR      53  20  28 NW10      30.09S

$$
NMZ407-409-411-412-271200-
SOUTHERN DESERTS

CITY           SKY/WX    TMP DP  RH WIND       PRES   REMARKS
DEMING         FAIR      57  22  25 VRB3      30.05R
LAS CRUCES     FAIR      65  27  24 W9        30.05R
HOLLOMAN AFB   FAIR      62  22  21 CALM      30.04R
ALAMOGORDO     FAIR      63  23  22 SE8       30.03R
T OR C         FAIR      60  15  17 NW9       30.03R

$$
NMZ519>523-271200-
CENTRAL VALLEYS/CENTRAL HIGHLANDS

CITY           SKY/WX    TMP DP  RH WIND       PRES   REMARKS
ALBUQUERQUE    FAIR      63  10  12 SW9       30.07R
DOUBLE EAGLE   FAIR      44  13  28 S6        30.09S
MORIARTY ARPT  FAIR      57  12  16 W12       30.10S
CLINES CORNERS FAIR      48  10  21 W17       30.11R
BELEN          FAIR      52  13  21 S5        30.07S
SOCORRO        FAIR      54  15  21 CALM      30.04R

$$
NMZ524>526-539-540-271200-
SOUTHCENTRAL MOUNTAINS

CITY           SKY/WX    TMP DP  RH WIND       PRES   REMARKS
RUIDOSO        NOT AVBL

$$
NMZ527>531-271200-
NORTHEAST HIGHLANDS/NORTHEAST PLAINS

CITY           SKY/WX    TMP DP  RH WIND       PRES   REMARKS
LAS VEGAS      FAIR      52  10  18 W15       30.05S
RATON          FAIR      45  21  38 SE5       30.01R
CLAYTON        FAIR      55  39  54 NW25G33   29.90R

$$
NMZ532>537-271200-
EASTCENTRAL PLAINS

CITY           SKY/WX    TMP DP  RH WIND       PRES   REMARKS
SANTA ROSA     FAIR      52  16  24 S7        29.97R
TUCUMCARI      FAIR      54  26  34 SW9       29.87R
CANNON AFB     FAIR      61  24  24 W9        29.94S
CLOVIS AIRPORT FAIR      61  25  25 W9        29.93R

$$
NMZ028-029-538-271200-
SOUTHEAST PLAINS

CITY           SKY/WX    TMP DP  RH WIND       PRES   REMARKS
ROSWELL        FAIR      67  23  19 NW5       29.91R
ARTESIA        FAIR      64  27  24 SW12      29.93R
CARLSBAD       FAIR      72  28  19 W13       29.91R
HOBBS          FAIR      68  27  21 W9        29.92S


$$




USA.gov is the U.S. government's official web portal to all federal, state and local government web resources and services.